Volver al catálogo

STARLINK-37607

ActivoComunicacionesVLEO
NORAD 69514·PAYLOAD·🇺🇸 United States

Lanzado Jun 12, 2026 desde Cape Canaveral Space Force Station

Loading…

Próximos Pases (próximas 24 horas)

TLE

ActualizadoSource: CelesTrak SupGP

Época: Sep 15, 2026, 03:52 UTC

1 69514C 26133G   26258.16159722 -.00049974  00000+0 -14764-2 0  2582
2 69514  53.1563 254.7953 0001339  89.8549 236.2551 15.34417911    15

Sigue STARLINK-37607 en tiempo real con AllMySat

Download on the App Store